Tracking 22836 objects as of 18-Apr-2021
HD Live streaming from Space Station
objects crossing your sky now

DELTA 1 DEB

Track DELTA 1 DEB now!
10-day predictions


NORAD ID: 39097
Int'l Code: 1973-086HK
Perigee: 1,514.8 km
Apogee: 1,564.7 km
Inclination: 102.4 °
Period: 116.7 minutes
Semi major axis: 7910 km
RCS: 0.0197 m2 (small)
Launch date: November 6, 1973
Source: United States (US)
Launch site: AIR FORCE WESTERN TEST RANGE (AFWTR)

Note: This is SATELLITE DEBRIS
aabbcc
Your satellite tracking list
Your tracking list is empty




NASA's NSSDC Master Catalog

Two Line Element Set (TLE):
1 39097U 73086HK  21107.68997250 -.00000034  00000-0  92521-4 0  9990
2 39097 102.3800  94.4411 0031505  62.8539 110.6717 12.33894060372320
Source of the keplerian elements: AFSPC